Location: *
(42.3377°N, 71.0868°W)
Time: 05:20:32
(UTC+00:00)

Cosmos 1703 - Pass Details

Date: 09 April 2020
Orbit: 524 x 540 km, 82.5° (Epoch: 28 May)

Event Time Altitude Azimuth Distance (km) Brightness Sun altitude
Rises 23:47:17 0° 359° (N) 2,705 7.1 -5.7°
Reaches altitude 10° 23:49:33 10° 6° (N) 1,810 6.1 -6.1°
Maximum altitude 23:53:19 41° 78° (ENE) 797 3.8 -6.8°
Drops below altitude 10° 23:57:04 10° 149° (SSE) 1,798 5.5 -7.5°
Sets 23:59:18 0° 157° (SSE) 2,684 6.4 -7.9°
